Content
SEND FEEDBACK

Daily
Averages
Monthly
Summary
United States of America

KINGS CREEK, SOUTH CAROLINA


Home > North America > United States > South Carolina
Elevation: 530 feet     Latitude: 35 03N     Longitude: 081 30W

WEATHER
 
SELECT A DAY
Number of Records: 254,416;   Date Range: 12/19/03 - 11/23/14
 
SHARE

PRINT THIS DATA

[ ← Previous Day ]
WEATHER ALMANAC - JANUARY 31, 2013
[ Next Day → ]
[ °C ]   °F
Weather ElementAverageHighLow
Temperature42.8 °F49.3 °F (2:55 pm)36.5 °F (9:35 pm)
Dewpoint24.2 °F43 °F (12:35 am)15.8 °F (5:15 pm)
Humidity50.1 %84 % (12:35 am)30 % (2:55 pm)
Barometer29.89 in30.03 in (7:55 pm)29.57 in (12:35 am)
Wind Speed12.1 mph20.7 mph (7:15 am)
Wind Gust29.9 mph (1:35 am)
Weather ElementAverage
Visibility10 mi
Wind DirectionWSW (249.2 °)

Weather ElementTotal
Precipitation---
Heating Degree Days22.1 (Base 65)
Averaged from 71 records on January 31, 2013
WEATHER CONDITIONS BREAKOUT
WIND DIRECTION BREAKOUT
WEATHER BY HOUR - JANUARY 31, 2013
[ °C ]   °F
Local TimeTemperatureDewpointHumidityBarometerVisibilityWind DirectionWind SpeedGust SpeedPrecipitationEventsConditions
12:35 AM47.7 °F43.0 °F84 %29.57 in10.0 miSW (220°)17.3 mph28.8 mphScattered Clouds
12:55 AM47.7 °F42.8 °F83 %29.58 in10.0 miSSW (210°)19.6 mph26.5 mphScattered Clouds
1:15 AM47.7 °F42.4 °F82 %29.58 in10.0 miSW (220°)19.6 mph27.6 mphClear
1:35 AM47.7 °F42.3 °F82 %29.59 in10.0 miSW (230°)19.6 mph29.9 mphScattered Clouds
1:55 AM47.7 °F42.3 °F82 %29.60 in10.0 miSW (230°)18.4 mph27.6 mphScattered Clouds
2:15 AM47.3 °F41.7 °F81 %29.62 in10.0 miWSW (240°)17.3 mph27.6 mphScattered Clouds
2:35 AM46.6 °F41.4 °F82 %29.62 in10.0 miWSW (250°)11.5 mph17.3 mphScattered Clouds
2:55 AM46.8 °F41.5 °F82 %29.64 in10.0 miWest (260°)11.5 mphMostly Cloudy
3:15 AM46.4 °F41.7 °F84 %29.65 in10.0 miWest (260°)12.7 mph16.1 mphOvercast
3:35 AM46.4 °F40.6 °F80 %29.67 in10.0 miWest (270°)11.5 mph21.9 mphOvercast
3:55 AM45.5 °F36.9 °F72 %29.69 in10.0 miWNW (290°)10.4 mphRainLight Rain
4:15 AM43.3 °F34.3 °F71 %29.70 in10.0 miWest (270°)15.0 mph18.4 mphMostly Cloudy
4:35 AM42.4 °F32.0 °F67 %29.72 in10.0 miWest (280°)12.7 mph18.4 mphScattered Clouds
4:55 AM41.9 °F30.9 °F65 %29.74 in10.0 miWest (280°)8.1 mphClear
5:15 AM40.6 °F27.7 °F60 %29.75 in10.0 miWest (280°)15.0 mph21.9 mphClear
5:35 AM39.7 °F26.6 °F59 %29.76 in10.0 miWNW (290°)16.1 mph21.9 mphClear
5:55 AM39.2 °F24.6 °F56 %29.78 in10.0 miWNW (290°)16.1 mph26.5 mphClear
6:15 AM38.8 °F23.2 °F53 %29.80 in10.0 miWNW (290°)15.0 mph25.3 mphClear
6:35 AM37.9 °F23.4 °F56 %29.81 in10.0 miWNW (290°)16.1 mph23.0 mphClear
6:55 AM37.6 °F23.0 °F56 %29.83 in10.0 miWest (280°)13.8 mphClear
7:15 AM37.4 °F23.2 °F57 %29.84 in10.0 miWest (270°)20.7 mph25.3 mphClear
7:35 AM36.9 °F21.7 °F54 %29.86 in10.0 miWest (280°)15.0 mph23.0 mphClear
7:55 AM36.9 °F20.5 °F52 %29.88 in10.0 miWest (260°)12.7 mph21.9 mphClear
8:15 AM37.4 °F19.9 °F49 %29.89 in10.0 miWest (270°)19.6 mph26.5 mphClear
8:35 AM37.4 °F20.1 °F50 %29.90 in10.0 miWNW (290°)17.3 mph24.2 mphClear
8:55 AM37.9 °F21.0 °F51 %29.91 in10.0 miWNW (290°)12.7 mph21.9 mphClear
9:15 AM38.7 °F21.4 °F50 %29.92 in10.0 miWest (270°)10.4 mph17.3 mphClear
9:35 AM39.2 °F21.9 °F50 %29.92 in10.0 miWest (260°)10.4 mphClear
9:55 AM39.6 °F22.8 °F51 %29.92 in10.0 miWest (280°)9.2 mph19.6 mphClear
10:15 AM40.5 °F22.5 °F49 %29.94 in10.0 miWest (260°)11.5 mphClear
10:35 AM41.2 °F22.5 °F47 %29.94 in10.0 miWest (270°)9.2 mph18.4 mphClear
10:55 AM42.3 °F21.4 °F43 %29.95 in10.0 miWSW (250°)12.7 mph20.7 mphClear
11:15 AM42.8 °F20.8 °F42 %29.94 in10.0 miWest (260°)13.8 mph23.0 mphClear
11:35 AM43.0 °F19.4 °F39 %29.94 in10.0 miWNW (300°)13.8 mph20.7 mphClear
11:55 AM44.4 °F20.7 °F39 %29.94 in10.0 miWNW (290°)10.4 mphClear
12:15 PM44.4 °F19.8 °F37 %29.94 in10.0 miWSW (250°)9.2 mph18.4 mphClear
12:35 PM45.1 °F18.7 °F35 %29.94 in10.0 miWest (260°)15.0 mph20.7 mphClear
12:55 PM46.2 °F21.2 °F37 %29.93 in10.0 miWSW (250°)12.7 mph21.9 mphClear
1:15 PM46.0 °F20.7 °F37 %29.93 in10.0 miSW (230°)13.8 mph19.6 mphScattered Clouds
1:35 PM46.2 °F19.9 °F35 %29.93 in10.0 miWSW (240°)15.0 mph20.7 mphClear
1:55 PM47.3 °F20.3 °F34 %29.92 in10.0 miWSW (250°)12.7 mph24.2 mphScattered Clouds
2:15 PM48.7 °F20.7 °F33 %29.93 in10.0 miWest (260°)11.5 mph19.6 mphScattered Clouds
2:35 PM48.6 °F19.4 °F32 %29.92 in10.0 miWest (260°)13.8 mph19.6 mphClear
2:55 PM49.3 °F19.0 °F30 %29.94 in10.0 miWest (270°)10.4 mph17.3 mphScattered Clouds
3:15 PM48.2 °F20.7 °F34 %29.95 in10.0 miWNW (300°)16.1 mph21.9 mphClear
3:35 PM48.4 °F19.8 °F32 %29.96 in10.0 miWest (280°)15.0 mph20.7 mphClear
3:55 PM48.2 °F19.8 °F32 %29.97 in10.0 miWNW (290°)15.0 mph21.9 mphClear
4:15 PM47.7 °F17.2 °F30 %29.98 in10.0 miWest (280°)15.0 mph23.0 mphClear
4:35 PM46.8 °F17.6 °F31 %29.98 in10.0 miWNW (290°)11.5 mphClear
4:55 PM46.4 °F16.5 °F30 %29.99 in10.0 miWest (280°)9.2 mphClear
5:15 PM45.5 °F15.8 °F30 %29.99 in10.0 miWNW (290°)17.3 mph24.2 mphClear
5:35 PM44.6 °F16.9 °F33 %29.99 in10.0 miWNW (300°)11.5 mph21.9 mphClear
5:55 PM43.9 °F16.7 °F34 %29.99 in10.0 miWest (280°)6.9 mph16.1 mphClear
6:15 PM42.8 °F17.1 °F36 %29.99 in10.0 miWNW (300°)6.9 mphClear
6:35 PM42.3 °F16.9 °F36 %30.00 in10.0 miWest (280°)3.5 mphClear
6:55 PM41.5 °F16.9 °F37 %30.00 in10.0 miCalmClear
7:15 PM41.5 °F16.3 °F36 %30.01 in10.0 miCalmClear
7:35 PM41.2 °F16.9 °F38 %30.02 in10.0 miSW (230°)3.5 mphClear
7:55 PM40.6 °F17.4 °F39 %30.03 in10.0 miSW (220°)3.5 mphClear
8:15 PM40.5 °F18.0 °F40 %30.01 in10.0 miSSE (150°)4.6 mphClear
8:35 PM39.7 °F17.6 °F41 %30.01 in10.0 miSouth (180°)3.5 mphClear
8:55 PM40.8 °F17.8 °F40 %30.01 in10.0 miSouth (190°)5.8 mphClear
9:15 PM39.6 °F20.3 °F46 %30.01 in10.0 miSSW (210°)8.1 mphClear
9:35 PM36.5 °F21.9 °F56 %30.03 in10.0 miSW (220°)4.6 mphClear
9:55 PM39.2 °F20.7 °F47 %30.02 in10.0 miSSW (200°)5.8 mphClear
10:15 PM38.3 °F22.3 °F53 %30.02 in10.0 miSW (220°)10.4 mphClear
10:35 PM39.0 °F22.8 °F52 %30.03 in10.0 miSW (220°)11.5 mphClear
10:55 PM39.2 °F23.2 °F53 %30.03 in10.0 miSW (220°)15.0 mph19.6 mphClear
11:15 PM39.6 °F22.8 °F51 %30.02 in10.0 miSW (220°)15.0 mphClear
11:35 PM40.1 °F22.5 °F49 %30.02 in10.0 miSW (220°)13.8 mph23.0 mphClear
11:55 PM39.9 °F22.8 °F50 %30.03 in10.0 miSW (220°)15.0 mph19.6 mphClear
Hourly data recorded from KEHO, located miles away from Kings Creek, South Carolina







STORIES FROM OUR PARTNERS